This demonstration page uses our WeatherBlox Daily Observations layout. Learn more.

Left ArrowRight Arrow

44.8408, -93.29828

Hourly Observations for March 22, 2016

Temp ( °F °C ) Dew Point ( °F °C ) Humidity (%) Winds ( mph kmh ) Pressure ( in mb ) Visibility ( mi km ) Precip ( " mm )
12:53 am 00:53 Partly Cloudy 44 6.7 29 -1.7 55 55 E 8 13 29.69 1005 10 16 0.00 0.00
12:56 am 00:56 Cloudy 45 7 28 -2 53 53 E 7 11 29.71 1006 10 16 0.00 0.00
1:53 am 01:53 Cloudy 43 6.1 29 -1.7 58 58 E 8 13 29.67 1005 10 16 0.00 0.00
2:53 am 02:53 Cloudy 43 6.1 30 -1.1 60 60 E 5 7 29.64 1004 10 16 0.00 0.00
3:53 am 03:53 Cloudy 42 5.6 30 -1.1 62 62 NNE 8 13 29.63 1003 10 16 0.00 0.00
4:53 am 04:53 Cloudy 41 5 29 -1.7 62 62 ENE 8 13 29.63 1003 10 16 0.00 0.00
5:53 am 05:53 Cloudy 40 4.4 29 -1.7 65 65 NE 12 19 29.60 1003 10 16 0.00 0.00
6:53 am 06:53 Mostly Cloudy 39 3.9 28 -2.2 65 65 NE 8 13 29.62 1003 10 16 0.00 0.00
7:53 am 07:53 Mostly Cloudy 39 3.9 28 -2.2 65 65 ENE 10 17 29.62 1003 10 16 0.00 0.00
8:53 am 08:53 Mostly Cloudy 42 5.6 29 -1.7 60 60 NE 8 13 29.63 1003 10 16 0.00 0.00
9:53 am 09:53 Mostly Cloudy 44 6.7 29 -1.7 55 55 NNE 10 17 29.65 1004 10 16 0.00 0.00
10:53 am 10:53 Mostly Cloudy 47 8.3 30 -1.1 52 52 NE 13 20 29.64 1004 10 16 0.00 0.00
11:53 am 11:53 Mostly Cloudy 51 10.6 30 -1.1 44 44 NNE 12 19 29.65 1004 10 16 0.00 0.00
12:53 pm 12:53 Mostly Cloudy 53 11.7 31 -0.6 43 43 N 14 22 29.67 1005 10 16 0.00 0.00
1:53 pm 13:53 Cloudy 52 11.1 30 -1.1 43 43 N 15 24 29.66 1005 10 16 0.00 0.00
2:53 pm 14:53 Cloudy 53 11.7 30 -1.1 41 41 NNE 16 26 29.66 1005 10 16 0.00 0.00
3:53 pm 15:53 Cloudy 54 12.2 31 -0.6 42 42 NE 13 20 29.67 1005 10 16 0.00 0.00
4:53 pm 16:53 Mostly Cloudy 52 11.1 32 0 47 47 N 16 26 29.69 1005 10 16 0.00 0.00
5:53 pm 17:53 Cloudy 50 10 32 0 50 50 NNE 15 24 29.71 1006 10 16 0.00 0.00
6:53 pm 18:53 Cloudy 46 7.8 31 -0.6 56 56 N 18 30 29.74 1007 10 16 0.00 0.00
7:53 pm 19:53 Cloudy 41 5 30 -1.1 65 65 NNE 17 28 29.77 1008 10 16 0.00 0.00
8:53 pm 20:53 Cloudy 39 3.9 29 -1.7 67 67 NNE 16 26 29.81 1010 10 16 0.00 0.00
9:53 pm 21:53 Cloudy 36 2.2 28 -2.2 73 73 NNE 17 28 29.85 1011 10 16 0.00 0.00
10:53 pm 22:53 Cloudy 35 1.7 28 -2.2 76 76 NNE 10 17 29.85 1011 10 16 0.00 0.00
11:53 pm 23:53 Cloudy 34 1.1 27 -2.8 76 76 NNE 10 17 29.88 1012 10 16 0.00 0.00

Powered by AerisWeather